[[{"header":{"parameterUnit":"m.s-1","parameterCategory":1,"la1":30.2991,"la2":30.254,"lo1":-89.0895,"lo2":-89.0444,"dy":0.0017,"dx":0.0017,"nx":28,"ny":28,"refTime":"2024-02-22T09:00:00:Z","depth":0,"parameterNumber":2,"parameterNumberName":"U-component_of_WINDS"},"data":[0,0,0,0,0,0,0,0,0,0,0,0,0,0,0,0,0,0,0,0,0,0,0,0,0,0,0,0,0,0,0,0,0,0,0,0,0,0,0,0,0,0,0,0,0,0,0,0,0,0,0,0,0,0,0,0,0,0,2.0554,2.0555,0,2.0632,2.0633,2.0634,2.0635,2.0634,2.0633,2.0632,2.0713,2.0716,2.0719,0,0,0,0,0,0,0,0,0,0,0,0,0,2.0408,2.0411,2.0554,2.0555,2.0556,2.0632,2.0633,2.0634,2.0635,2.0634,2.0632,2.0631,2.0712,2.0715,2.0719,0,0,0,0,0,0,0,0,0,0,0,0,0,2.0477,2.0411,2.0554,2.0565,2.0567,2.0632,2.0633,2.0634,2.0635,2.0634,2.0632,2.0631,2.071,2.0715,2.0719,2.0778,0,0,2.0734,2.0736,0,0,0,0,0,0,0,0,2.0473,2.0483,2.0563,2.0565,2.0567,2.0622,2.0611,2.0683,2.0635,2.0609,2.0632,2.063,2.0684,2.0691,2.0708,2.0782,2.0785,2.0734,2.0737,2.0739,2.074,0,0,0,0,0,0,0,2.0468,2.0479,2.0585,2.0564,2.0566,2.0567,2.0576,2.0625,2.0654,2.0611,2.0612,2.0621,2.0685,2.0704,2.071,2.0786,2.0734,2.0738,2.0741,2.0743,2.0913,2.0915,0,0,0,0,0,0,2.0461,2.0475,2.0582,2.0587,2.0515,2.0571,2.058,2.0606,2.0653,2.0659,2.0622,2.0621,2.0697,2.0705,2.0713,2.0786,2.0739,2.0743,2.0746,2.0912,2.0914,2.0916,0,0,0,0,0,0,2.0458,2.0471,2.0579,2.0531,2.0545,2.0575,2.0604,2.0608,2.0627,2.0661,2.0667,2.0636,2.0696,2.0707,2.0762,2.0789,2.0745,2.0749,2.091,2.0912,2.0915,2.0931,0,0,0,0,0,0,2.0454,2.0469,2.0491,2.0532,2.0548,2.0626,2.0606,2.0611,2.0635,2.0634,2.0676,2.0682,2.0696,2.0755,2.0767,2.0794,2.0753,2.0907,2.0911,2.0914,2.0928,2.0934,2.0938,0,0,0,0,0,2.0448,2.0493,2.0492,2.0505,2.0576,2.0628,2.0637,2.0652,2.0637,2.066,2.0682,2.068,2.0784,2.0761,2.0774,2.0803,2.0906,2.091,2.0914,2.0926,2.0933,2.0938,0,0,0,0,0,0,2.0454,2.0498,2.0498,2.0557,2.0589,2.0628,2.0657,2.0658,2.0695,2.0692,2.0709,2.0719,2.0774,2.0794,2.0768,2.0863,2.0843,2.085,2.0848,2.0855,2.086,2.0854,2.0757,0,0,0,0,0,2.0463,2.0501,2.0537,2.0585,2.0601,2.0626,2.0649,2.0658,2.0692,2.0705,2.0731,2.0765,2.0805,2.0831,2.087,2.0931,2.0941,2.0958,2.0963,2.0967,2.0973,2.1008,2.1017,2.0929,2.0929,2.0929,0,0,2.048,2.0508,2.0531,2.0587,2.0613,2.0653,2.0637,2.068,2.071,2.0712,2.0766,2.0786,2.0825,2.0884,2.0911,2.0902,2.0999,2.0972,2.0975,2.0979,2.1013,2.1022,2.1029,2.0931,2.0931,2.093,0,0,2.0531,2.0556,2.06,2.0626,2.0665,2.0682,2.0692,2.0732,2.0746,2.08,2.0803,2.0839,2.0908,2.0935,2.0958,2.1022,2.1023,2.1035,2.1062,2.1096,2.1103,2.111,2.1133,2.1142,2.104,2.104,2.104,0,2.0548,2.0607,2.0622,2.0665,2.069,2.0694,2.0739,2.0764,2.0813,2.0831,2.082,2.0907,2.0933,2.1,2.1015,2.1034,2.1047,2.103,2.1101,2.1107,2.1113,2.1136,2.1145,2.1041,2.1041,2.1041,2.1041,0,2.0626,2.0668,2.0698,2.0747,2.0775,2.0819,2.0841,2.0868,2.0875,2.0893,2.095,2.0981,2.1027,2.1043,2.105,2.1111,2.1105,2.1097,2.1078,2.1123,2.1145,2.1154,2.1043,2.1043,2.1042,2.1042,0,0,2.0683,2.074,2.0751,2.0774,2.0818,2.085,2.0895,2.094,2.0963,2.0998,2.1037,2.1095,2.1089,2.1115,2.1125,2.1155,2.1206,2.1145,2.1146,2.1156,2.1277,2.1282,2.1292,2.1206,2.1208,2.1209,2.1274,0,2.074,2.0819,2.0834,2.0903,2.0942,2.0947,2.0986,2.1018,2.1036,2.1073,2.1094,2.1136,2.1124,2.114,2.117,2.1193,2.123,2.1189,2.1243,2.1245,2.1234,2.1303,2.1309,2.1369,2.1282,2.1284,2.1285,0,2.0817,2.0854,2.0927,2.0967,2.0984,2.1018,2.1062,2.1096,2.1133,2.1145,2.1175,2.1182,2.123,2.1208,2.1274,2.1246,2.1269,2.1284,2.1287,2.1293,2.1268,2.1312,2.1388,2.1397,2.1298,2.1297,2.1296,0,2.0852,2.092,2.0973,2.0992,2.104,2.1064,2.1086,2.1121,2.1147,2.1185,2.1203,2.1246,2.127,2.1303,2.1323,2.1305,2.1388,2.1368,2.14,2.14,2.1418,2.1416,2.1499,2.1432,2.1432,2.1431,2.1431,0,2.0915,2.0959,2.099,2.1022,2.1072,2.109,2.114,2.1161,2.1193,2.123,2.1237,2.1272,2.1295,2.1334,2.1349,2.1403,2.1413,2.1424,2.1428,2.1424,2.1423,2.144,2.1436,2.1434,2.1433,2.1433,2.1432,0,2.0963,2.0985,2.1042,2.1083,2.1095,2.113,2.1166,2.1198,2.1217,2.1265,2.1277,2.1307,2.1353,2.1375,2.1433,2.1443,2.1504,2.1505,2.1492,2.1493,2.1525,2.1522,2.1621,2.1636,2.1558,2.1559,2.156,0,2.1001,2.1036,2.1081,2.1106,2.1128,2.1169,2.1196,2.1215,2.1243,2.1289,2.1316,2.1362,2.14,2.1474,2.1502,2.1546,2.1548,2.158,2.1555,2.155,2.155,2.1548,2.1552,2.1585,2.1585,2.1586,2.1586,0,2.1068,2.1077,2.1116,2.1159,2.1191,2.1226,2.126,2.1281,2.1306,2.1338,2.1385,2.1414,2.1473,2.152,2.1566,2.1589,2.1593,2.1594,2.1604,2.1601,2.1592,2.1598,2.1505,2.1592,2.1591,2.1591,2.1591,2.159,2.1113,2.1144,2.1181,2.1224,2.1252,2.1284,2.1317,2.1341,2.138,2.1429,2.1438,2.1489,2.1527,2.1589,2.1614,2.1655,2.1647,2.1662,2.1665,2.1669,2.1671,2.1585,2.1663,2.1663,2.1663,2.1663,2.1663,0,2.118,2.1204,2.1244,2.1292,2.1327,2.1327,2.1365,2.1394,2.1438,2.1473,2.1511,2.1566,2.1611,2.1643,2.1689,2.1716,2.1719,2.1727,2.1726,2.1731,2.1674,2.1661,2.1724,2.1724,2.1724,2.1724,2.1724,2.1724,2.1219,2.1273,2.1287,2.1355,2.1379,2.1428,2.145,2.1481,2.1509,2.157,2.1607,2.1628,2.1662,2.1711,2.1753,2.1761,2.1779,2.1788,2.1796,2.1742,2.1735,2.1729,2.1717,2.1791,2.1791,2.185,2.1851,2.1851]},{"header":{"parameterUnit":"m.s-1","parameterCategory":1,"la1":30.2991,"la2":30.254,"lo1":-89.0895,"lo2":-89.0444,"dy":0.0017,"dx":0.0017,"nx":28,"ny":28,"refTime":"2024-02-22T09:00:00:Z","depth":0,"parameterNumber":3,"parameterNumberName":"V-component_of_WINDS"},"data":[0,0,0,0,0,0,0,0,0,0,0,0,0,0,0,0,0,0,0,0,0,0,0,0,0,0,0,0,0,0,0,0,0,0,0,0,0,0,0,0,0,0,0,0,0,0,0,0,0,0,0,0,0,0,0,0,0,0,-3.5379,-3.538,0,-3.5519,-3.5521,-3.5522,-3.5529,-3.5527,-3.5526,-3.5524,-3.5671,-3.5676,-3.5681,0,0,0,0,0,0,0,0,0,0,0,0,0,-3.5119,-3.5123,-3.5378,-3.538,-3.5382,-3.5519,-3.5521,-3.5523,-3.5529,-3.5527,-3.5525,-3.5523,-3.5669,-3.5675,-3.5682,0,0,0,0,0,0,0,0,0,0,0,0,0,-3.5243,-3.5125,-3.5378,-3.5402,-3.5405,-3.5519,-3.5521,-3.5523,-3.553,-3.5527,-3.5525,-3.5522,-3.5667,-3.5675,-3.5683,-3.5783,0,0,-3.5708,-3.5711,0,0,0,0,0,0,0,0,-3.5236,-3.5252,-3.5396,-3.54,-3.5404,-3.5504,-3.5483,-3.5611,-3.553,-3.5482,-3.5524,-3.5521,-3.5617,-3.5629,-3.5661,-3.579,-3.5796,-3.5708,-3.5713,-3.5717,-3.5719,0,0,0,0,0,0,0,-3.5227,-3.5246,-3.5434,-3.5398,-3.5403,-3.5406,-3.5421,-3.5507,-3.5562,-3.5486,-3.5487,-3.5504,-3.5619,-3.5653,-3.5665,-3.5798,-3.5708,-3.5715,-3.572,-3.5724,-3.6018,-3.6021,0,0,0,0,0,0,-3.5213,-3.5239,-3.543,-3.5438,-3.5312,-3.5413,-3.5429,-3.5474,-3.5561,-3.5572,-3.5506,-3.5503,-3.5641,-3.5655,-3.567,-3.5794,-3.5717,-3.5724,-3.5729,-3.6016,-3.6019,-3.6022,0,0,0,0,0,0,-3.5208,-3.523,-3.5424,-3.5339,-3.5364,-3.542,-3.547,-3.5479,-3.5513,-3.5576,-3.5586,-3.553,-3.5639,-3.5658,-3.5755,-3.58,-3.5728,-3.5736,-3.6012,-3.6017,-3.6021,-3.6043,0,0,0,0,0,0,-3.52,-3.5228,-3.5266,-3.534,-3.5368,-3.5506,-3.5473,-3.5483,-3.5527,-3.5525,-3.5602,-3.5612,-3.5639,-3.5743,-3.5763,-3.581,-3.5742,-3.6008,-3.6014,-3.6019,-3.6039,-3.6048,-3.6056,0,0,0,0,0,-3.5191,-3.5267,-3.5268,-3.5291,-3.5417,-3.5508,-3.5525,-3.5553,-3.553,-3.5569,-3.561,-3.561,-3.5791,-3.5753,-3.5776,-3.5825,-3.6006,-3.6013,-3.6019,-3.6035,-3.6046,-3.6055,0,0,0,0,0,0,-3.5198,-3.5277,-3.5279,-3.5381,-3.5438,-3.5509,-3.5559,-3.5564,-3.5629,-3.5625,-3.5658,-3.5676,-3.5772,-3.5808,-3.5764,-3.5928,-3.5896,-3.5908,-3.59,-3.5912,-3.592,-3.5909,-3.5749,0,0,0,0,0,-3.5211,-3.5278,-3.5344,-3.5428,-3.5456,-3.5503,-3.5544,-3.5561,-3.5622,-3.5646,-3.5693,-3.5753,-3.5824,-3.587,-3.5938,-3.6044,-3.6062,-3.609,-3.6098,-3.6105,-3.6114,-3.6175,-3.6188,-3.6044,-3.6044,-3.6044,0,0,-3.5239,-3.5291,-3.5331,-3.543,-3.5476,-3.5546,-3.5523,-3.5597,-3.565,-3.5657,-3.5752,-3.5789,-3.5858,-3.596,-3.6007,-3.5993,-3.6158,-3.6113,-3.6118,-3.6124,-3.6183,-3.6196,-3.6209,-3.6048,-3.6048,-3.6047,0,0,-3.5326,-3.5372,-3.5447,-3.5494,-3.5563,-3.5594,-3.5612,-3.5684,-3.5709,-3.5804,-3.5811,-3.5875,-3.5995,-3.6044,-3.6085,-3.6193,-3.6195,-3.6214,-3.6258,-3.6317,-3.6328,-3.6338,-3.6378,-3.6391,-3.6223,-3.6223,-3.6223,0,-3.5353,-3.5457,-3.5485,-3.556,-3.5604,-3.5614,-3.5691,-3.5735,-3.5824,-3.5855,-3.5838,-3.599,-3.6037,-3.6152,-3.6178,-3.621,-3.6233,-3.6205,-3.6324,-3.6334,-3.6344,-3.6382,-3.6397,-3.6225,-3.6225,-3.6225,-3.6225,0,-3.5487,-3.5559,-3.5612,-3.5697,-3.5747,-3.5823,-3.5863,-3.5911,-3.5924,-3.5957,-3.6055,-3.6112,-3.6192,-3.6221,-3.6234,-3.6338,-3.6327,-3.6317,-3.6285,-3.636,-3.6396,-3.6411,-3.6228,-3.6227,-3.6227,-3.6226,0,0,-3.5582,-3.5682,-3.5701,-3.574,-3.5819,-3.5876,-3.5953,-3.6031,-3.6072,-3.6133,-3.62,-3.6302,-3.6293,-3.6339,-3.6359,-3.641,-3.6493,-3.6393,-3.6396,-3.6411,-3.6612,-3.662,-3.6637,-3.6495,-3.6498,-3.65,-3.6607,0,-3.5678,-3.5814,-3.5842,-3.596,-3.6028,-3.6039,-3.6106,-3.6162,-3.6195,-3.6259,-3.6296,-3.6369,-3.6351,-3.6379,-3.643,-3.6472,-3.6534,-3.6465,-3.6558,-3.6561,-3.6541,-3.6656,-3.6664,-3.6762,-3.6621,-3.6624,-3.6625,0,-3.5808,-3.5872,-3.5997,-3.6068,-3.6097,-3.6157,-3.6232,-3.6292,-3.6357,-3.6378,-3.643,-3.6444,-3.6526,-3.6491,-3.6605,-3.6557,-3.6597,-3.6624,-3.6628,-3.6639,-3.6598,-3.667,-3.6794,-3.6809,-3.6648,-3.6646,-3.6644,0,-3.5866,-3.5984,-3.6074,-3.6107,-3.6191,-3.6233,-3.6271,-3.6333,-3.6379,-3.6445,-3.6475,-3.655,-3.6591,-3.6649,-3.6684,-3.6655,-3.6796,-3.6763,-3.6817,-3.6816,-3.6846,-3.6844,-3.6979,-3.6871,-3.6871,-3.687,-3.687,0,-3.5971,-3.6047,-3.6101,-3.6156,-3.6243,-3.6275,-3.636,-3.6397,-3.6453,-3.6517,-3.6531,-3.6591,-3.6633,-3.6699,-3.6727,-3.6818,-3.6836,-3.6856,-3.6863,-3.6856,-3.6853,-3.6883,-3.6877,-3.6874,-3.6874,-3.6873,-3.6872,0,-3.605,-3.6089,-3.6188,-3.626,-3.628,-3.634,-3.6403,-3.6458,-3.6492,-3.6573,-3.6594,-3.6647,-3.6726,-3.6767,-3.6865,-3.6884,-3.6987,-3.6989,-3.6965,-3.6968,-3.702,-3.7015,-3.7179,-3.7203,-3.7078,-3.7079,-3.708,0,-3.6114,-3.6173,-3.6251,-3.6295,-3.6333,-3.6403,-3.645,-3.6485,-3.6533,-3.6612,-3.6658,-3.6738,-3.6803,-3.693,-3.6978,-3.7054,-3.7059,-3.7111,-3.707,-3.7062,-3.7061,-3.7057,-3.7064,-3.7119,-3.712,-3.7121,-3.7121,0,-3.6225,-3.6242,-3.6308,-3.6382,-3.6438,-3.6498,-3.6557,-3.6592,-3.6637,-3.6691,-3.6772,-3.6823,-3.6924,-3.7003,-3.7083,-3.7123,-3.7131,-3.7134,-3.7151,-3.7144,-3.7128,-3.7139,-3.6986,-3.713,-3.7129,-3.7129,-3.7128,-3.7128,-3.63,-3.6353,-3.6417,-3.6491,-3.6539,-3.6594,-3.665,-3.6691,-3.6759,-3.6843,-3.686,-3.6946,-3.7011,-3.7119,-3.7161,-3.723,-3.7219,-3.7243,-3.7249,-3.7255,-3.7258,-3.7116,-3.7245,-3.7244,-3.7244,-3.7244,-3.7244,0,-3.6412,-3.6454,-3.6522,-3.6604,-3.6663,-3.6664,-3.673,-3.678,-3.6855,-3.6914,-3.6979,-3.7073,-3.715,-3.7205,-3.7284,-3.7329,-3.7335,-3.7349,-3.7346,-3.7356,-3.7262,-3.7241,-3.7343,-3.7343,-3.7343,-3.7343,-3.7343,-3.7343,-3.6478,-3.6568,-3.6593,-3.6708,-3.675,-3.6833,-3.6871,-3.6923,-3.6971,-3.7075,-3.7139,-3.7174,-3.7233,-3.7317,-3.7388,-3.7403,-3.7432,-3.7446,-3.7461,-3.7373,-3.7362,-3.7352,-3.7332,-3.7452,-3.7452,-3.7549,-3.755,-3.755]}]]